Flag for U.S.A. Weather past 2 weeks in Tyler, Texas, U.S.A.

Now
70 °F

Light rain. Broken clouds.


Feels Like: 65 °F
Forecast: 71 / 76 °F
Wind: 7 mph from South

Location: Tyler Pounds Field

Current Time: May 24, 2015 at 6:40:24 PM

Latest Report: May 24, 2015 at 5:53 PM


Visibility: 10 mi

Pressure: 29.85 "Hg

Humidity: 93%

Dew point: 68 °F

Location of TylerLocation

Historic Weather in Tyler — Graph

°F

Tyler temperature yesterday

Maximum temperature yesterday: 84 °F (at 1:53 PM)
Minimum temperature yesterday: 68 °F (at 2:53 AM)
Average temperature yesterday: 75 °F

Past Weeks' High & Low Weather Summary

 TemperatureHumidityPressure
High88 °F (May 16, 2:53 PM)100% (May 11, 6:53 AM)30.25 "Hg (May 11, 6:53 AM)
Low58 °F (May 22, 6:53 AM)54% (May 16, 2:53 PM)29.79 "Hg (May 9, 5:53 PM)
Average73 °F81%30.01 "Hg
* Reported May 9 5:53 PM — May 24 5:04 PM, Tyler, Weather by CustomWeather, © 2015

Note: Actual official high and low records may vary slightly from our data, if they occured in-between our weather recording intervals... More about our weather records

Advertising

Tyler weather history for previous 24 hours

 ConditionsComfort  
Time TempWeatherWind HumidityBarometerVisibility
5:04 PM
Sun, May 24
73 °FThundershowers. Mostly cloudy.10 mph88%29.87 "Hg10 mi
3:53 PM78 °FPartly sunny.14 mph74%29.87 "Hg10 mi
2:53 PM72 °FBroken clouds.14 mph87%29.88 "Hg10 mi
1:53 PM75 °FMostly cloudy.15 mph76%29.90 "Hg10 mi
12:53 PM72 °FMostly cloudy.16 mph87%29.88 "Hg10 mi
11:53 AM73 °FPartly sunny.16 mph84%29.88 "Hg10 mi
10:53 AM69 °FLight rain. Overcast.8 mph93%29.86 "Hg9 mi
9:53 AM73 °FHeavy rain. Fog.14 mph94%29.87 "Hg3 mi
8:53 AM73 °FLight rain. Broken clouds.12 mph90%29.89 "Hg9 mi
7:53 AM72 °FPartly sunny.10 mph91%29.89 "Hg10 mi
6:53 AM69 °FLight rain. Overcast.9 mph90%29.90 "Hg10 mi
5:53 AM69 °FClear.8 mph90%29.91 "Hg10 mi
4:53 AM71 °FLight rain. Passing clouds.12 mph90%29.89 "Hg10 mi
3:53 AM73 °FLight rain. Passing clouds.14 mph88%29.91 "Hg10 mi
2:53 AM75 °FPassing clouds.21 mph82%29.92 "Hg10 mi
1:53 AM75 °FPassing clouds.16 mph85%29.93 "Hg10 mi
12:53 AM74 °FPassing clouds.12 mph91%29.96 "Hg10 mi
11:53 PM
Sat, May 23
74 °FPassing clouds.9 mph91%29.96 "Hg10 mi
10:53 PM74 °FClear.10 mph88%29.96 "Hg10 mi
9:53 PM74 °FClear.10 mph88%29.96 "Hg10 mi
8:53 PM76 °FPassing clouds.9 mph82%29.97 "Hg10 mi
7:53 PM76 °FPassing clouds.5 mph88%29.98 "Hg10 mi
6:53 PM77 °FSunny.7 mph85%29.96 "Hg10 mi
Weather by CustomWeather, © 2015

See weather overviewHow to use our weather pages